Hourly Weather Barnislaw

Today, 26 September, Saturday

Time Temperature Precipitation Wind Pressure Humidity
00:00 +10°C° 0 mm 2 mps 741 mmHg 85%
01:00 +11°C° 0 mm 1 mps 741 mmHg 85%
02:00 +10°C° 0 mm 2 mps 741 mmHg 85%
03:00 +10°C° 0 mm 2 mps 741 mmHg 85%
04:00 +10°C° 0 mm 2 mps 740 mmHg 85%
05:00 +10°C° 0 mm 3 mps 740 mmHg 85%
06:00 +10°C° 0 mm 3 mps 740 mmHg 85%
07:00 +10°C° 0 mm 3 mps 740 mmHg 85%
08:00 +11°C° 0.1 mm 4 mps 739 mmHg 86%
09:00 +12°C° 0.1 mm 5 mps 739 mmHg 86%
10:00 +12°C° 0.1 mm 5 mps 739 mmHg 87%
11:00 +13°C° 1.5 mm 6 mps 739 mmHg 90%
12:00 +13°C° 1.5 mm 6 mps 738 mmHg 92%
13:00 +13°C° 1.5 mm 6 mps 737 mmHg 94%
14:00 +14°C° 1.7 mm 6 mps 737 mmHg 94%
15:00 +15°C° 1.7 mm 5 mps 737 mmHg 94%
16:00 +16°C° 1.7 mm 5 mps 737 mmHg 94%
17:00 +16°C° 0.8 mm 5 mps 737 mmHg 93%
18:00 +15°C° 0.8 mm 5 mps 737 mmHg 93%
19:00 +15°C° 0.8 mm 5 mps 737 mmHg 93%
20:00 +14°C° 0 mm 5 mps 738 mmHg 92%
21:00 +12°C° 0 mm 5 mps 739 mmHg 92%
22:00 +10°C° 0 mm 5 mps 740 mmHg 92%
23:00 +10°C° 0 mm 4 mps 741 mmHg 91%

Tomorrow, 27 September, Sunday

Time Temperature Precipitation Wind Pressure Humidity
00:00 +10°C° 0 mm 3 mps 742 mmHg 90%
01:00 +10°C° 0 mm 2 mps 742 mmHg 89%
02:00 +10°C° 0 mm 2 mps 743 mmHg 89%
03:00 +10°C° 0 mm 1 mps 743 mmHg 90%
04:00 +10°C° 0 mm 1 mps 743 mmHg 90%
05:00 +10°C° 0.4 mm 1 mps 743 mmHg 91%
06:00 +9°C° 0.4 mm 2 mps 743 mmHg 92%
07:00 +9°C° 0.4 mm 2 mps 743 mmHg 92%
08:00 +9°C° 1 mm 3 mps 743 mmHg 93%
09:00 +8°C° 1 mm 4 mps 743 mmHg 93%
10:00 +10°C° 1 mm 4 mps 743 mmHg 94%
11:00 +10°C° 0.6 mm 4 mps 743 mmHg 94%
12:00 +10°C° 0.6 mm 4 mps 743 mmHg 94%
13:00 +10°C° 0.6 mm 4 mps 743 mmHg 94%
14:00 +10°C° 0.9 mm 4 mps 743 mmHg 94%
15:00 +10°C° 0.9 mm 4 mps 743 mmHg 94%
16:00 +9°C° 0.9 mm 5 mps 744 mmHg 94%
17:00 +10°C° 0.7 mm 4 mps 744 mmHg 94%
18:00 +10°C° 0.7 mm 4 mps 744 mmHg 95%
19:00 +10°C° 0.7 mm 3 mps 744 mmHg 96%
20:00 +10°C° 0.2 mm 2 mps 745 mmHg 96%
21:00 +10°C° 0.2 mm 2 mps 745 mmHg 96%
22:00 +11°C° 0.2 mm 1 mps 745 mmHg 97%
23:00 +11°C° 0 mm 1 mps 745 mmHg 97%

Day after tomorrow, 28 September, Monday

Time Temperature Precipitation Wind Pressure Humidity
00:00 +10°C° 0 mm 2 mps 745 mmHg 97%
01:00 +10°C° 0 mm 2 mps 745 mmHg 97%
02:00 +10°C° 0 mm 2 mps 746 mmHg 97%
03:00 +11°C° 0 mm 1 mps 746 mmHg 97%
04:00 +11°C° 0 mm 1 mps 746 mmHg 97%
05:00 +10°C° 0 mm 2 mps 746 mmHg 96%
06:00 +10°C° 0 mm 3 mps 747 mmHg 95%
07:00 +10°C° 0 mm 4 mps 747 mmHg 94%
08:00 +11°C° 0 mm 4 mps 747 mmHg 92%
09:00 +11°C° 0 mm 4 mps 748 mmHg 89%
10:00 +11°C° 0 mm 4 mps 748 mmHg 87%
11:00 +12°C° 0 mm 5 mps 748 mmHg 83%
12:00 +12°C° 0 mm 5 mps 748 mmHg 80%
13:00 +13°C° 0 mm 5 mps 749 mmHg 76%
14:00 +14°C° 0 mm 5 mps 749 mmHg 72%
15:00 +14°C° 0 mm 4 mps 749 mmHg 68%
16:00 +16°C° 0 mm 3 mps 749 mmHg 64%
17:00 +14°C° 0 mm 3 mps 750 mmHg 68%
18:00 +13°C° 0 mm 3 mps 750 mmHg 72%
19:00 +11°C° 0 mm 3 mps 750 mmHg 76%
20:00 +11°C° 0 mm 3 mps 750 mmHg 78%
21:00 +10°C° 0 mm 3 mps 751 mmHg 80%
22:00 +9°C° 0 mm 3 mps 751 mmHg 82%
23:00 +9°C° 0 mm 3 mps 751 mmHg 86%

29 September, Tuesday

Time Temperature Precipitation Wind Pressure Humidity
00:00 +9°C° 0 mm 3 mps 751 mmHg 89%
01:00 +8°C° 0 mm 3 mps 751 mmHg 93%
02:00 +8°C° 0 mm 2 mps 751 mmHg 94%
03:00 +8°C° 0 mm 2 mps 751 mmHg 95%
04:00 +8°C° 0 mm 2 mps 751 mmHg 96%
05:00 +8°C° 0 mm 2 mps 751 mmHg 95%
06:00 +10°C° 0 mm 1 mps 752 mmHg 95%
07:00 +10°C° 0 mm 1 mps 752 mmHg 95%
08:00 +11°C° 0 mm 1 mps 752 mmHg 87%
09:00 +13°C° 0 mm 1 mps 752 mmHg 78%
10:00 +15°C° 0 mm 1 mps 752 mmHg 70%
11:00 +16°C° 0 mm 1 mps 752 mmHg 66%
12:00 +18°C° 0 mm 1 mps 753 mmHg 62%
13:00 +19°C° 0 mm 1 mps 753 mmHg 58%
14:00 +17°C° 0 mm 0 mps 753 mmHg 58%
15:00 +17°C° 0 mm 0 mps 753 mmHg 59%
16:00 +17°C° 0 mm 0 mps 753 mmHg 59%
17:00 +15°C° 0 mm 0 mps 753 mmHg 67%
18:00 +15°C° 0 mm 1 mps 753 mmHg 74%
19:00 +13°C° 0 mm 1 mps 753 mmHg 81%
20:00 +13°C° 0 mm 1 mps 753 mmHg 84%
21:00 +12°C° 0 mm 1 mps 754 mmHg 87%
22:00 +12°C° 0 mm 1 mps 754 mmHg 89%
23:00 +12°C° 0 mm 1 mps 754 mmHg 90%

30 September, Wednesday

Time Temperature Precipitation Wind Pressure Humidity
00:00 +11°C° 0 mm 1 mps 754 mmHg 90%
01:00 +11°C° 0 mm 1 mps 754 mmHg 90%
02:00 +11°C° 0 mm 1 mps 753 mmHg 91%
03:00 +11°C° 0 mm 1 mps 753 mmHg 91%
04:00 +11°C° 0 mm 1 mps 753 mmHg 92%
05:00 +11°C° 0 mm 1 mps 753 mmHg 91%
06:00 +11°C° 0 mm 1 mps 753 mmHg 91%
07:00 +10°C° 0 mm 0 mps 753 mmHg 91%
08:00 +13°C° 0 mm 1 mps 754 mmHg 85%
09:00 +15°C° 0 mm 1 mps 754 mmHg 79%
10:00 +16°C° 0 mm 1 mps 754 mmHg 72%
11:00 +18°C° 0 mm 1 mps 753 mmHg 70%
12:00 +19°C° 0 mm 1 mps 753 mmHg 67%
13:00 +20°C° 0 mm 1 mps 753 mmHg 64%
14:00 +19°C° 0 mm 1 mps 753 mmHg 66%
15:00 +18°C° 0 mm 2 mps 753 mmHg 68%
16:00 +18°C° 0 mm 2 mps 752 mmHg 70%
17:00 +16°C° 0 mm 2 mps 752 mmHg 76%
18:00 +15°C° 0 mm 2 mps 752 mmHg 82%
19:00 +14°C° 0 mm 1 mps 752 mmHg 88%
20:00 +13°C° 0 mm 1 mps 752 mmHg 89%
21:00 +13°C° 0 mm 1 mps 752 mmHg 90%
22:00 +13°C° 0 mm 1 mps 752 mmHg 91%
23:00 +13°C° 0 mm 1 mps 752 mmHg 92%

1 October, Thursday

Time Temperature Precipitation Wind Pressure Humidity
00:00 +13°C° 0 mm 1 mps 752 mmHg 92%
01:00 +13°C° 0 mm 1 mps 751 mmHg 92%
02:00 +13°C° 0 mm 2 mps 751 mmHg 92%
03:00 +12°C° 0 mm 2 mps 751 mmHg 93%
04:00 +12°C° 0 mm 2 mps 750 mmHg 93%
05:00 +12°C° 0 mm 2 mps 750 mmHg 93%
06:00 +12°C° 0 mm 2 mps 750 mmHg 93%
07:00 +12°C° 0 mm 2 mps 750 mmHg 93%
08:00 +14°C° 0 mm 2 mps 750 mmHg 88%
09:00 +15°C° 0 mm 1 mps 749 mmHg 84%
10:00 +16°C° 0 mm 1 mps 749 mmHg 80%
11:00 +17°C° 0 mm 2 mps 749 mmHg 75%
12:00 +18°C° 0 mm 2 mps 748 mmHg 70%
13:00 +19°C° 0 mm 2 mps 748 mmHg 66%
14:00 +19°C° 0 mm 2 mps 747 mmHg 68%
15:00 +18°C° 0 mm 2 mps 747 mmHg 70%
16:00 +18°C° 0 mm 2 mps 747 mmHg 73%
17:00 +17°C° 0 mm 2 mps 747 mmHg 78%
18:00 +16°C° 0 mm 2 mps 746 mmHg 84%
19:00 +15°C° 0 mm 2 mps 746 mmHg 90%
20:00 +15°C° 0.2 mm 2 mps 746 mmHg 92%
21:00 +14°C° 0.2 mm 2 mps 746 mmHg 94%
22:00 +14°C° 0.2 mm 1 mps 746 mmHg 96%
23:00 +14°C° 0.1 mm 1 mps 745 mmHg 96%
Show more